CW7014 Weather Reports


time (UTC)temp
C
wind
direction
speed
KPH
gust
KPH
rain 1hr
cm
rain 24hr
cm
rain mn
cm
humidity
%
barometer
mb
20260906145457 27 317 1.6 6.4 0.00 0.03 0.00 87 1018.6
20260906144957 27 318 1.6 8.0 0.00 0.03 0.00 85 1018.6
20260906144458 27 280 1.6 8.0 0.00 0.03 0.00 87 1018.5
20260906143957 27 329 1.6 8.0 0.00 0.03 0.00 86 1018.4
20260906143458 27 267 0.0 4.8 0.00 0.03 0.00 88 1018.5
20260906142958 27 26 0.0 0.0 0.00 0.03 0.00 88 1018.4
20260906142457 27 14 0.0 1.6 0.00 0.03 0.00 89 1018.5
20260906141957 26 13 0.0 1.6 0.00 0.03 0.00 89 1018.4
20260906141458 26 311 0.0 1.6 0.00 0.03 0.00 89 1018.3
20260906140958 26 304 0.0 3.2 0.00 0.03 0.00 91 1018.3
20260906140458 26 304 0.0 1.6 0.00 0.03 0.00 93 1018.3
20260906140000 25 304 0.0 0.0 0.00 0.03 0.00 93 1018.3
20260906135457 25 304 0.0 0.0 0.00 0.03 0.00 95 1018.3
20260906134957 24 304 0.0 0.0 0.00 0.03 0.00 95 1018.3
20260906134458 24 304 0.0 1.6 0.00 0.03 0.00 95 1018.3
20260906133957 23 304 0.0 4.8 0.00 0.03 0.00 95 1018.4
20260906133457 23 304 0.0 4.8 0.00 0.03 0.00 95 1018.5
20260906132957 23 202 0.0 0.0 0.00 0.03 0.00 95 1018.5
20260906132458 23 202 0.0 0.0 0.00 0.03 0.00 95 1018.4
20260906131958 23 202 0.0 0.0 0.00 0.03 0.00 96 1018.4
20260906131458 23 202 0.0 0.0 0.00 0.03 0.00 96 1018.4
20260906130957 23 202 0.0 0.0 0.00 0.03 0.00 95 1018.4
20260906130457 23 202 0.0 0.0 0.00 0.03 0.00 96 1018.4
20260906125959 23 202 0.0 0.0 0.00 0.03 0.00 96 1018.3
20260906125457 23 202 0.0 0.0 0.00 0.03 0.00 95 1018.3
20260906123957 23 202 0.0 0.0 0.00 0.03 0.00 96 1018.2
20260906123458 23 202 0.0 0.0 0.00 0.03 0.00 96 1018.2
20260906122958 23 202 0.0 0.0 0.00 0.03 0.00 96 1018.2
20260906122457 23 202 0.0 0.0 0.00 0.03 0.00 95 1018.0
20260906121457 23 202 0.0 0.0 0.00 0.03 0.00 95 1017.9
20260906120957 23 202 0.0 0.0 0.00 0.03 0.00 96 1017.9
20260906115959 23 202 0.0 0.0 0.00 0.03 0.00 96 1017.8
20260906115457 23 202 0.0 0.0 0.00 0.03 0.00 96 1017.9
20260906114957 23 202 0.0 0.0 0.00 0.03 0.00 96 1017.8
20260906114459 23 202 0.0 0.0 0.00 0.03 0.00 96 1017.7
20260906113957 23 202 0.0 0.0 0.00 0.03 0.00 96 1017.7
20260906113457 23 202 0.0 0.0 0.00 0.03 0.00 96 1017.7
20260906112958 23 202 0.0 0.0 0.00 0.03 0.00 96 1017.6
20260906112458 23 202 0.0 0.0 0.00 0.03 0.00 96 1017.5
20260906111958 23 202 0.0 0.0 0.00 0.03 0.00 96 1017.5
20260906111458 23 202 0.0 0.0 0.00 0.03 0.00 96 1017.5
20260906110957 23 202 0.0 0.0 0.00 0.03 0.00 96 1017.5
20260906110457 23 202 0.0 0.0 0.00 0.03 0.00 96 1017.4
20260906105959 23 202 0.0 0.0 0.00 0.03 0.00 96 1017.3
20260906105457 23 202 0.0 0.0 0.00 0.03 0.00 96 1017.3
20260906104957 23 202 0.0 0.0 0.00 0.03 0.00 96 1017.2
20260906104459 23 202 0.0 0.0 0.00 0.03 0.00 96 1017.4
20260906103957 23 202 0.0 0.0 0.00 0.03 0.00 95 1017.2
20260906102957 23 202 0.0 0.0 0.00 0.03 0.00 95 1017.1
20260906102457 23 202 0.0 0.0 0.00 0.03 0.00 95 1017.0
20260906101958 23 202 0.0 0.0 0.00 0.03 0.00 95 1017.0
20260906101458 23 202 0.0 0.0 0.00 0.03 0.00 95 1017.0
20260906100957 23 202 0.0 0.0 0.00 0.03 0.00 95 1016.9
20260906100000 24 202 0.0 0.0 0.00 0.03 0.00 95 1017.0
20260906094957 24 202 0.0 0.0 0.00 0.03 0.00 95 1016.9
20260906094458 24 202 0.0 0.0 0.00 0.03 0.00 95 1016.8
20260906093957 24 202 0.0 0.0 0.00 0.03 0.00 95 1016.7
20260906092958 24 202 0.0 0.0 0.00 0.03 0.00 95 1016.7
20260906091958 24 202 0.0 0.0 0.00 0.03 0.00 96 1016.6
20260906091458 24 202 0.0 0.0 0.00 0.03 0.00 96 1016.5
20260906090958 24 202 0.0 0.0 0.00 0.03 0.00 96 1016.5
20260906090457 24 202 0.0 0.0 0.00 0.03 0.00 95 1016.4
20260906090000 24 202 0.0 0.0 0.00 0.03 0.00 95 1016.3
20260906085457 25 202 0.0 0.0 0.00 0.03 0.00 96 1016.3
20260906084958 25 202 0.0 0.0 0.00 0.03 0.00 95 1016.4
20260906083958 25 202 0.0 0.0 0.00 0.03 0.00 95 1016.4
20260906082958 25 202 0.0 0.0 0.00 0.03 0.00 95 1016.4
20260906082457 25 202 0.0 0.0 0.00 0.03 0.00 95 1016.4
20260906081957 25 202 0.0 0.0 0.00 0.03 0.00 95 1016.3
20260906080957 25 202 0.0 0.0 0.00 0.03 0.00 95 1016.3
20260906080458 25 202 0.0 0.0 0.00 0.03 0.00 95 1016.4
20260906075959 25 202 0.0 0.0 0.00 0.03 0.00 95 1016.3
20260906074956 25 202 0.0 0.0 0.00 0.03 0.00 95 1016.2
20260906074458 25 202 0.0 0.0 0.00 0.03 0.00 95 1016.1
20260906073956 25 202 0.0 0.0 0.00 0.03 0.00 95 1016.2
20260906073456 25 202 0.0 0.0 0.00 0.03 0.00 95 1016.1
20260906072957 25 202 0.0 0.0 0.00 0.03 0.00 96 1016.1
20260906072457 25 202 0.0 0.0 0.00 0.03 0.00 96 1016.1
20260906071957 25 202 0.0 0.0 0.00 0.03 0.00 96 1016.1
20260906070956 25 202 0.0 0.0 0.00 0.03 0.00 96 1016.2
20260906070456 25 202 0.0 0.0 0.00 0.03 0.00 96 1016.2
20260906065957 25 202 0.0 0.0 0.00 0.03 0.00 96 1016.2
20260906065456 25 202 0.0 0.0 0.00 0.03 0.00 96 1016.3
20260906064956 25 202 0.0 0.0 0.00 0.03 0.00 96 1016.3
20260906064457 25 202 0.0 0.0 0.00 0.03 0.00 96 1016.4
20260906063456 25 202 0.0 0.0 0.00 0.03 0.00 96 1016.4
20260906062957 25 202 0.0 0.0 0.00 0.03 0.00 96 1016.4
20260906062456 25 202 0.0 0.0 0.00 0.03 0.00 95 1016.4
20260906061956 25 202 0.0 0.0 0.00 0.03 0.00 95 1016.4
20260906061457 25 202 0.0 0.0 0.00 0.03 0.00 95 1016.4
20260906060957 25 202 0.0 0.0 0.00 0.03 0.00 95 1016.5
20260906055959 25 202 0.0 0.0 0.00 0.03 0.00 95 1016.5
20260906054957 25 202 0.0 0.0 0.00 0.03 0.00 95 1016.5
20260906054456 25 202 0.0 0.0 0.00 0.03 0.00 95 1016.4
20260906053956 25 202 0.0 0.0 0.00 0.03 0.00 95 1016.4
20260906053456 25 202 0.0 0.0 0.00 0.03 0.00 95 1016.4
20260906052957 25 202 0.0 0.0 0.00 0.03 0.00 95 1016.3
20260906052456 25 202 0.0 0.0 0.00 0.03 0.00 95 1016.3
20260906051956 25 202 0.0 0.0 0.00 0.03 0.00 95 1016.3
20260906051456 25 202 0.0 0.0 0.00 0.03 0.00 95 1016.3
20260906050959 25 202 0.0 0.0 0.00 0.03 0.00 95 1016.3
20260906050459 25 202 0.0 0.0 0.00 0.03 0.00 95 1016.3
20260906050003 25 202 0.0 0.0 0.00 0.03 0.00 95 1016.2
20260906045459 25 202 0.0 0.0 0.00 0.03 0.03 94 1016.1
20260906044458 25 202 0.0 0.0 0.00 0.03 0.03 94 1016.1
20260906043959 25 202 0.0 0.0 0.00 0.03 0.03 94 1016.1
20260906043459 25 202 0.0 0.0 0.00 0.03 0.03 94 1016.0
20260906042959 25 202 0.0 0.0 0.00 0.03 0.03 94 1016.1
20260906041958 25 202 0.0 0.0 0.00 0.03 0.03 93 1016.1
20260906041459 25 202 0.0 0.0 0.00 0.03 0.03 93 1015.9
20260906041000 25 202 0.0 0.0 0.00 0.03 0.03 93 1016.0
20260906040500 25 202 0.0 0.0 0.00 0.03 0.03 93 1016.0
20260906040001 25 202 0.0 0.0 0.00 0.03 0.03 93 1016.0
20260906035458 25 202 0.0 0.0 0.00 0.03 0.03 93 1015.9
20260906034958 25 202 0.0 0.0 0.00 0.03 0.03 93 1015.8
20260906034459 25 202 0.0 0.0 0.00 0.03 0.03 93 1015.8
20260906033958 25 202 0.0 0.0 0.00 0.03 0.03 93 1015.6
20260906033458 25 202 0.0 0.0 0.00 0.03 0.03 93 1015.7
20260906032959 26 202 0.0 0.0 0.00 0.03 0.03 93 1015.6
20260906032458 26 202 0.0 0.0 0.00 0.03 0.03 93 1015.6
20260906031958 26 202 0.0 0.0 0.00 0.03 0.03 93 1015.5
20260906031458 26 202 0.0 0.0 0.00 0.03 0.03 93 1015.5
20260906030958 26 202 0.0 0.0 0.00 0.03 0.03 94 1015.4
20260906030459 26 202 0.0 0.0 0.00 0.03 0.03 94 1015.4
20260906030000 26 202 0.0 0.0 0.00 0.03 0.03 94 1015.4
20260906025458 26 202 0.0 0.0 0.00 0.03 0.03 93 1015.2
20260906024958 26 202 0.0 0.0 0.00 0.03 0.03 93 1015.2
20260906024459 26 202 0.0 0.0 0.00 0.03 0.03 93 1015.0
20260906023957 26 202 0.0 0.0 0.00 0.03 0.03 93 1015.1
20260906022959 26 202 0.0 0.0 0.00 0.03 0.03 93 1015.0
20260906021958 27 202 0.0 0.0 0.00 0.03 0.03 92 1014.9
20260906021459 27 202 0.0 0.0 0.00 0.03 0.03 92 1014.8
20260906020958 27 202 0.0 0.0 0.00 0.03 0.03 92 1014.8
20260906020458 27 202 0.0 0.0 0.00 0.03 0.03 92 1014.6
20260906020001 27 202 0.0 0.0 0.00 0.03 0.03 91 1014.6
20260906015459 27 202 0.0 0.0 0.00 0.03 0.03 91 1014.5
20260906014959 27 202 0.0 0.0 0.00 0.03 0.03 90 1014.5
20260906014501 27 202 0.0 0.0 0.00 0.03 0.03 89 1014.5
20260906014000 28 202 0.0 0.0 0.00 0.03 0.03 88 1014.4
20260906013459 28 202 0.0 0.0 0.00 0.03 0.03 88 1014.4
20260906013000 28 202 0.0 0.0 0.00 0.03 0.03 88 1014.2
20260906012459 28 202 0.0 0.0 0.00 0.03 0.03 87 1014.3
20260906011001 28 202 0.0 0.0 0.00 0.03 0.03 84 1014.1
20260906010501 29 202 0.0 0.0 0.00 0.03 0.03 84 1014.0
20260906010003 29 202 0.0 0.0 0.00 0.03 0.03 83 1014.0
20260906005502 29 202 0.0 0.0 0.00 0.03 0.03 82 1013.8
20260906005001 30 202 0.0 0.0 0.00 0.03 0.03 82 1013.8
20260906004501 30 202 0.0 0.0 0.00 0.03 0.03 82 1013.8
20260906004001 30 202 0.0 0.0 0.00 0.03 0.03 81 1013.7
20260906001501 31 202 0.0 0.0 0.00 0.03 0.03 78 1013.9
20260906001001 31 202 0.0 0.0 0.00 0.03 0.03 77 1013.8
20260906000502 31 202 0.0 0.0 0.00 0.03 0.03 77 1013.6
20260906000003 31 202 0.0 0.0 0.00 0.03 0.03 77 1013.6
20260905235501 31 202 0.0 0.0 0.00 0.03 0.03 76 1013.6
20260905235002 31 202 0.0 0.0 0.00 0.03 0.03 77 1013.7
20260905234502 31 202 0.0 0.0 0.00 0.03 0.03 77 1013.8
20260905234001 31 202 0.0 0.0 0.00 0.03 0.03 77 1013.8
20260905233501 31 197 0.0 0.0 0.00 0.03 0.03 78 1013.8
20260905233001 31 202 0.0 0.0 0.00 0.03 0.03 77 1014.1
20260905232501 31 202 0.0 0.0 0.00 0.03 0.03 76 1014.1
20260905232001 31 197 0.0 0.0 0.03 0.03 0.03 76 1014.0
20260905231502 31 202 0.0 0.0 0.03 0.03 0.03 76 1014.0
20260905231002 32 202 0.0 0.0 0.03 0.03 0.03 76 1013.9
20260905230501 32 202 0.0 0.0 0.03 0.03 0.03 76 1013.9
20260905230004 32 202 0.0 0.0 0.03 0.03 0.03 75 1013.9
20260905225501 32 202 0.0 0.0 0.03 0.03 0.03 76 1013.9
20260905225001 32 197 0.0 0.0 0.03 0.03 0.03 74 1013.8
20260905224501 32 202 0.0 0.0 0.03 0.03 0.03 79 1013.9
20260905224001 32 202 0.0 0.0 0.03 0.03 0.03 77 1013.9
20260905223501 32 197 0.0 0.0 0.03 0.03 0.03 79 1013.8
20260905223002 31 202 0.0 0.0 0.03 0.03 0.03 79 1013.8
20260905222501 31 202 0.0 0.0 0.03 0.03 0.03 80 1013.8
20260905222001 31 197 0.0 0.0 0.00 0.00 0.00 80 1013.9
20260905221501 31 202 0.0 0.0 0.00 0.00 0.00 80 1013.9
20260905221001 31 202 0.0 0.0 0.00 0.00 0.00 79 1014.1
20260905220501 31 197 0.0 0.0 0.00 0.00 0.00 80 1014.2
20260905220003 31 202 0.0 0.0 0.00 0.00 0.00 82 1014.2
20260905215501 30 201 0.0 0.0 0.00 0.00 0.00 81 1014.1
20260905215000 30 196 0.0 0.0 0.00 0.00 0.00 84 1014.1
20260905214501 30 200 0.0 0.0 0.00 0.00 0.00 83 1014.0
20260905214001 30 201 0.0 0.0 0.00 0.00 0.00 85 1013.9
20260905212501 30 201 0.0 0.0 0.00 0.00 0.00 82 1013.9
20260905212000 30 200 0.0 0.0 0.00 0.00 0.00 82 1013.8
20260905211501 30 200 0.0 0.0 0.00 0.00 0.00 81 1013.8
20260905210500 30 201 1.6 8.0 0.00 0.00 0.00 76 1014.1
20260905205501 32 301 0.0 4.8 0.00 0.00 0.00 68 1014.2
20260905205002 33 334 1.6 14.5 0.00 0.00 0.00 67 1014.4
20260905204502 35 319 4.8 35.4 0.00 0.00 0.00 61 1014.4
20260905204001 36 279 3.2 35.4 0.00 0.00 0.00 54 1014.4
20260905203501 37 360 1.6 9.7 0.00 0.00 0.00 53 1014.3
20260905202501 37 321 0.0 6.4 0.00 0.00 0.00 50 1014.2
20260905202001 37 5 0.0 3.2 0.00 0.00 0.00 52 1014.3
20260905201001 37 11 1.6 8.0 0.00 0.00 0.00 54 1014.3
20260905200501 37 333 1.6 8.0 0.00 0.00 0.00 51 1014.3
20260905200001 37 331 1.6 8.0 0.00 0.00 0.00 51 1014.3
20260905195459 37 344 0.0 3.2 0.00 0.00 0.00 53 1014.5
20260905195000 37 344 1.6 6.4 0.00 0.00 0.00 51 1014.5
20260905194501 37 309 1.6 8.0 0.00 0.00 0.00 51 1014.6
20260905194000 37 322 1.6 9.7 0.00 0.00 0.00 52 1014.7
20260905193500 37 351 1.6 9.7 0.00 0.00 0.00 50 1014.8
20260905193000 38 334 1.6 12.9 0.00 0.00 0.00 51 1014.9
20260905192000 38 5 1.6 12.9 0.00 0.00 0.00 53 1014.9
20260905191502 38 202 1.6 6.4 0.00 0.00 0.00 52 1014.9
20260905191000 38 207 1.6 9.7 0.00 0.00 0.00 53 1015.0
20260905190003 38 288 1.6 11.3 0.00 0.00 0.00 50 1015.1
20260905185000 37 305 3.2 14.5 0.00 0.00 0.00 52 1015.2
20260905184502 37 348 1.6 12.9 0.00 0.00 0.00 55 1015.2
20260905184001 37 355 1.6 12.9 0.00 0.00 0.00 51 1015.3
20260905181502 37 310 0.0 8.0 0.00 0.00 0.00 54 1015.7
20260905181001 37 349 0.0 4.8 0.00 0.00 0.00 57 1015.7
20260905180501 37 349 0.0 4.8 0.00 0.00 0.00 58 1015.8
20260905180001 37 349 0.0 4.8 0.00 0.00 0.00 58 1015.7
20260905175500 37 349 0.0 3.2 0.00 0.00 0.00 57 1015.8
20260905175000 37 349 0.0 6.4 0.00 0.00 0.00 60 1015.8
20260905174500 37 346 1.6 8.0 0.00 0.00 0.00 55 1015.8
20260905174000 37 322 1.6 8.0 0.00 0.00 0.00 55 1015.8
20260905173500 37 318 0.0 8.0 0.00 0.00 0.00 56 1016.0
20260905173001 37 333 0.0 8.0 0.00 0.00 0.00 60 1016.0
20260905172500 37 355 0.0 6.4 0.00 0.00 0.00 59 1016.1
20260905172000 36 355 1.6 6.4 0.00 0.00 0.00 59 1016.1
20260905171500 36 360 0.0 6.4 0.00 0.00 0.00 60 1016.2
20260905170959 36 14 0.0 6.4 0.00 0.00 0.00 63 1016.1
20260905170500 36 14 1.6 8.0 0.00 0.00 0.00 59 1016.2
20260905170001 36 329 1.6 8.0 0.00 0.00 0.00 57 1016.4
20260905165459 36 333 0.0 6.4 0.00 0.00 0.00 61 1016.4
20260905165000 36 333 1.6 6.4 0.00 0.00 0.00 59 1016.4
20260905164500 36 338 3.2 9.7 0.00 0.00 0.00 60 1016.6
20260905164000 36 355 1.6 9.7 0.00 0.00 0.00 61 1016.5
20260905163500 36 355 1.6 8.0 0.00 0.00 0.00 61 1016.6
20260905163000 36 349 3.2 9.7 0.00 0.00 0.00 63 1016.6
20260905162500 35 321 1.6 9.7 0.00 0.00 0.00 62 1016.6
20260905161959 35 13 1.6 9.7 0.00 0.00 0.00 63 1016.6
20260905161500 35 21 0.0 6.4 0.00 0.00 0.00 61 1016.7
20260905161001 35 17 1.6 6.4 0.00 0.00 0.00 63 1016.7
20260905160500 35 19 1.6 6.4 0.00 0.00 0.00 63 1016.8
20260905160001 35 26 1.6 8.0 0.00 0.00 0.00 65 1016.8
20260905154501 34 350 1.6 8.0 0.00 0.00 0.00 65 1016.8
20260905154000 34 10 1.6 8.0 0.00 0.00 0.00 65 1016.8
20260905153000 33 355 1.6 12.9 0.00 0.00 0.00 66 1016.9
20260905152500 33 360 1.6 9.7 0.00 0.00 0.00 67 1016.8
20260905152001 33 313 1.6 8.0 0.00 0.00 0.00 67 1016.9
20260905151500 33 318 1.6 8.0 0.00 0.00 0.00 68 1016.9
20260905151000 33 344 3.2 8.0 0.00 0.00 0.00 68 1016.9
20260905150500 33 15 3.2 12.9 0.00 0.00 0.00 67 1016.9
20260905150000 32 334 1.6 12.9 0.00 0.00 0.00 67 1016.9